[[{"header":{"parameterUnit":"m.s-1","parameterCategory":1,"la1":30.2991,"la2":30.254,"lo1":-89.0895,"lo2":-89.0444,"dy":0.0017,"dx":0.0017,"nx":28,"ny":28,"refTime":"2024-04-17T21:00:00:Z","depth":0,"parameterNumber":2,"parameterNumberName":"U-component_of_WINDS"},"data":[0,0,0,0,0,0,0,0,0,0,0,0,0,0,0,0,0,0,0,0,0,0,0,0,0,0,0,0,0,0,0,0,0,0,0,0,0,0,0,0,0,0,0,0,0,0,0,0,0,0,0,0,0,0,0,0,0,0,-0.4887,-0.4887,0,-0.486,-0.486,-0.486,-0.4849,-0.4849,-0.4849,-0.4849,-0.4819,-0.4818,-0.4817,0,0,0,0,0,0,0,0,0,0,0,0,0,-0.4929,-0.4928,-0.4887,-0.4887,-0.4887,-0.486,-0.486,-0.4859,-0.4849,-0.4849,-0.4849,-0.4849,-0.4819,-0.4818,-0.4817,0,0,0,0,0,0,0,0,0,0,0,0,0,-0.4907,-0.4928,-0.4887,-0.4878,-0.4877,-0.486,-0.486,-0.4859,-0.4849,-0.4849,-0.4849,-0.4849,-0.482,-0.4818,-0.4817,-0.4807,0,0,-0.4813,-0.4813,0,0,0,0,0,0,0,0,-0.4908,-0.4905,-0.488,-0.4879,-0.4877,-0.4858,-0.4863,-0.4842,-0.4849,-0.4859,-0.4849,-0.4849,-0.4832,-0.483,-0.4824,-0.4806,-0.4805,-0.4813,-0.4812,-0.4812,-0.4811,0,0,0,0,0,0,0,-0.491,-0.4906,-0.4877,-0.4879,-0.4878,-0.4875,-0.4872,-0.4859,-0.4845,-0.4858,-0.4858,-0.4855,-0.4831,-0.4825,-0.4823,-0.4804,-0.4813,-0.4812,-0.4811,-0.4811,-0.4776,-0.4776,0,0,0,0,0,0,-0.4913,-0.4908,-0.4877,-0.4876,-0.4893,-0.4874,-0.4871,-0.4864,-0.4845,-0.4843,-0.4854,-0.4854,-0.4828,-0.4825,-0.4822,-0.4809,-0.4812,-0.4811,-0.481,-0.4776,-0.4776,-0.4776,0,0,0,0,0,0,-0.4914,-0.491,-0.4879,-0.4892,-0.4887,-0.4873,-0.4866,-0.4863,-0.4858,-0.4842,-0.484,-0.4851,-0.4828,-0.4824,-0.4811,-0.4808,-0.481,-0.4809,-0.4776,-0.4776,-0.4776,-0.4783,0,0,0,0,0,0,-0.4915,-0.4911,-0.4907,-0.4892,-0.4887,-0.4868,-0.4866,-0.4863,-0.4856,-0.4855,-0.4839,-0.4836,-0.4827,-0.4813,-0.481,-0.4806,-0.4808,-0.4777,-0.4776,-0.4776,-0.4783,-0.4783,-0.4783,0,0,0,0,0,-0.4917,-0.491,-0.4907,-0.4903,-0.4882,-0.4868,-0.4865,-0.4856,-0.4856,-0.4852,-0.4842,-0.4837,-0.4809,-0.4812,-0.4808,-0.4804,-0.4777,-0.4776,-0.4776,-0.4783,-0.4783,-0.4783,0,0,0,0,0,0,-0.4925,-0.4908,-0.4904,-0.4892,-0.4882,-0.4866,-0.4861,-0.4856,-0.4845,-0.4845,-0.4833,-0.483,-0.4818,-0.481,-0.4813,-0.4793,-0.4792,-0.4791,-0.4799,-0.4799,-0.4799,-0.4801,-0.4807,0,0,0,0,0,-0.4925,-0.4916,-0.4901,-0.4892,-0.4887,-0.4875,-0.4869,-0.4863,-0.4851,-0.4846,-0.4836,-0.4824,-0.4813,-0.4805,-0.4794,-0.4782,-0.4778,-0.4777,-0.4777,-0.4778,-0.4777,-0.4769,-0.4769,-0.4775,-0.4775,-0.4775,0,0,-0.4926,-0.4916,-0.491,-0.4894,-0.4885,-0.4875,-0.4871,-0.4861,-0.4854,-0.4844,-0.4832,-0.4824,-0.481,-0.4797,-0.4791,-0.479,-0.4774,-0.4777,-0.4777,-0.4776,-0.4769,-0.4769,-0.4768,-0.4774,-0.4774,-0.4774,0,0,-0.4923,-0.4914,-0.4905,-0.4897,-0.4884,-0.4876,-0.4874,-0.4859,-0.4853,-0.484,-0.4833,-0.4824,-0.4805,-0.4795,-0.4788,-0.4781,-0.4776,-0.4778,-0.4778,-0.4771,-0.4771,-0.477,-0.4768,-0.4767,-0.4777,-0.4777,-0.4777,0,-0.4925,-0.4911,-0.4901,-0.4892,-0.4885,-0.4876,-0.4867,-0.4859,-0.4843,-0.4838,-0.4837,-0.4813,-0.4803,-0.4788,-0.4787,-0.4781,-0.4778,-0.4779,-0.4772,-0.4771,-0.477,-0.4768,-0.4767,-0.4777,-0.4777,-0.4777,-0.4777,0,-0.4914,-0.4904,-0.4899,-0.4884,-0.4876,-0.4867,-0.4856,-0.4849,-0.4844,-0.4835,-0.4822,-0.481,-0.4797,-0.4793,-0.4787,-0.4777,-0.4777,-0.4774,-0.4773,-0.477,-0.4768,-0.4767,-0.4778,-0.4778,-0.4777,-0.4777,0,0,-0.4915,-0.4895,-0.4893,-0.4887,-0.4872,-0.4863,-0.4854,-0.4841,-0.4835,-0.4824,-0.4815,-0.4799,-0.4797,-0.4789,-0.4782,-0.4776,-0.4771,-0.4774,-0.4773,-0.4773,-0.4759,-0.4761,-0.476,-0.4768,-0.4767,-0.4767,-0.476,0,-0.4909,-0.4892,-0.4883,-0.487,-0.486,-0.4853,-0.4844,-0.4834,-0.4826,-0.4816,-0.4807,-0.4796,-0.4794,-0.4789,-0.4783,-0.4773,-0.4768,-0.4773,-0.4759,-0.4758,-0.4762,-0.4758,-0.4761,-0.4754,-0.4759,-0.4759,-0.4759,0,-0.49,-0.489,-0.4875,-0.4862,-0.4857,-0.485,-0.4837,-0.4829,-0.4817,-0.4811,-0.4802,-0.4796,-0.4785,-0.4784,-0.4769,-0.4773,-0.4766,-0.4761,-0.476,-0.4758,-0.4758,-0.4756,-0.4752,-0.4751,-0.4757,-0.4757,-0.4757,0,-0.4902,-0.4884,-0.4873,-0.4868,-0.4851,-0.4846,-0.4839,-0.4827,-0.482,-0.4809,-0.4804,-0.4792,-0.4785,-0.4775,-0.4765,-0.4766,-0.4751,-0.475,-0.4746,-0.4746,-0.4742,-0.4743,-0.4737,-0.4739,-0.4739,-0.4739,-0.4739,0,-0.4896,-0.4888,-0.4874,-0.4867,-0.4857,-0.4847,-0.4838,-0.483,-0.4819,-0.4811,-0.4803,-0.4795,-0.4782,-0.4772,-0.4764,-0.4753,-0.475,-0.4745,-0.4743,-0.4745,-0.4746,-0.4741,-0.4741,-0.4738,-0.4738,-0.4739,-0.4739,0,-0.4896,-0.4887,-0.4874,-0.486,-0.4856,-0.485,-0.4837,-0.483,-0.4822,-0.4811,-0.4808,-0.4795,-0.4783,-0.4772,-0.4756,-0.4751,-0.4739,-0.4736,-0.4743,-0.4742,-0.4738,-0.4739,-0.4729,-0.4727,-0.473,-0.473,-0.473,0,-0.4893,-0.4886,-0.4872,-0.4866,-0.4859,-0.4849,-0.4842,-0.4832,-0.4825,-0.481,-0.4805,-0.4793,-0.4782,-0.4763,-0.4752,-0.474,-0.4737,-0.4734,-0.4735,-0.4738,-0.4736,-0.4737,-0.4736,-0.4734,-0.4734,-0.4734,-0.4734,0,-0.4889,-0.4884,-0.4875,-0.4863,-0.4855,-0.4845,-0.4836,-0.4831,-0.4819,-0.4811,-0.4799,-0.4791,-0.4775,-0.4763,-0.4749,-0.4741,-0.4736,-0.4734,-0.4733,-0.4735,-0.4739,-0.4737,-0.4743,-0.4734,-0.4734,-0.4734,-0.4734,-0.4734,-0.4887,-0.4881,-0.4869,-0.4859,-0.485,-0.4841,-0.4834,-0.4825,-0.4815,-0.4802,-0.4797,-0.4784,-0.4772,-0.4754,-0.4746,-0.4736,-0.4734,-0.4732,-0.4731,-0.4731,-0.4731,-0.4741,-0.4733,-0.4733,-0.4733,-0.4733,-0.4733,0,-0.4882,-0.4874,-0.4865,-0.4851,-0.4843,-0.4839,-0.4828,-0.4821,-0.4811,-0.48,-0.479,-0.4776,-0.4764,-0.4753,-0.474,-0.4734,-0.4731,-0.4731,-0.4731,-0.4729,-0.4733,-0.4736,-0.4734,-0.4734,-0.4734,-0.4734,-0.4734,-0.4734,-0.4878,-0.4867,-0.4862,-0.4847,-0.4839,-0.4827,-0.4821,-0.4813,-0.4804,-0.4789,-0.478,-0.4772,-0.4761,-0.4748,-0.4736,-0.4733,-0.4729,-0.4729,-0.4725,-0.4729,-0.4729,-0.4729,-0.4732,-0.4728,-0.4728,-0.4722,-0.4722,-0.4722]},{"header":{"parameterUnit":"m.s-1","parameterCategory":1,"la1":30.2991,"la2":30.254,"lo1":-89.0895,"lo2":-89.0444,"dy":0.0017,"dx":0.0017,"nx":28,"ny":28,"refTime":"2024-04-17T21:00:00:Z","depth":0,"parameterNumber":3,"parameterNumberName":"V-component_of_WINDS"},"data":[0,0,0,0,0,0,0,0,0,0,0,0,0,0,0,0,0,0,0,0,0,0,0,0,0,0,0,0,0,0,0,0,0,0,0,0,0,0,0,0,0,0,0,0,0,0,0,0,0,0,0,0,0,0,0,0,0,0,1.2974,1.2974,0,1.2987,1.2987,1.2987,1.2973,1.2973,1.2972,1.2972,1.2984,1.2984,1.2985,0,0,0,0,0,0,0,0,0,0,0,0,0,1.2937,1.2938,1.2974,1.2974,1.2974,1.2987,1.2987,1.2987,1.2973,1.2973,1.2972,1.2972,1.2983,1.2984,1.2985,0,0,0,0,0,0,0,0,0,0,0,0,0,1.2952,1.2938,1.2974,1.2969,1.2969,1.2987,1.2987,1.2987,1.2974,1.2973,1.2972,1.2971,1.2983,1.2984,1.2985,1.3008,0,0,1.2989,1.299,0,0,0,0,0,0,0,0,1.2951,1.2953,1.297,1.297,1.2969,1.2978,1.2978,1.2994,1.2974,1.2972,1.2972,1.2971,1.2982,1.2983,1.2987,1.3009,1.3009,1.2989,1.299,1.299,1.2991,0,0,0,0,0,0,0,1.295,1.2952,1.2979,1.297,1.297,1.2966,1.2967,1.2981,1.2981,1.2972,1.2971,1.2973,1.2982,1.2986,1.2988,1.301,1.2989,1.299,1.2991,1.2991,1.3049,1.305,0,0,0,0,0,0,1.2949,1.2952,1.2979,1.2979,1.2958,1.2967,1.2968,1.2976,1.2981,1.2981,1.2973,1.2972,1.2985,1.2986,1.2988,1.3014,1.299,1.2992,1.2992,1.3048,1.3049,1.305,0,0,0,0,0,0,1.2949,1.2952,1.2978,1.2965,1.2968,1.2969,1.2977,1.2976,1.2981,1.2982,1.2982,1.2978,1.2984,1.2986,1.3003,1.3015,1.2992,1.2993,1.3047,1.3048,1.3049,1.3067,0,0,0,0,0,0,1.2948,1.2952,1.2961,1.2966,1.2969,1.2994,1.2978,1.2977,1.2983,1.2981,1.2986,1.2986,1.2984,1.3001,1.3004,1.3016,1.2994,1.3046,1.3048,1.3049,1.3066,1.3069,1.3072,0,0,0,0,0,1.2946,1.2966,1.2962,1.2965,1.2981,1.2994,1.2996,1.2993,1.2984,1.2993,1.2993,1.2986,1.3013,1.3003,1.3006,1.3018,1.3045,1.3047,1.3049,1.3065,1.3069,1.3072,0,0,0,0,0,0,1.2963,1.2966,1.2962,1.2983,1.2989,1.2992,1.3003,1.2998,1.3006,1.3004,1.2999,1.3,1.3018,1.302,1.3009,1.304,1.3027,1.303,1.3038,1.3042,1.3045,1.3044,1.2995,0,0,0,0,0,1.2969,1.298,1.2982,1.3001,1.3004,1.3003,1.3009,1.3006,1.3011,1.3013,1.3015,1.302,1.303,1.3036,1.3045,1.3066,1.3066,1.3076,1.3079,1.3081,1.3083,1.3094,1.3098,1.3056,1.3056,1.3056,0,0,1.2981,1.2985,1.2992,1.3004,1.3008,1.3019,1.3005,1.3018,1.3026,1.3015,1.3031,1.3033,1.3038,1.3057,1.3065,1.3059,1.3095,1.3084,1.3086,1.3086,1.3096,1.31,1.3104,1.3057,1.3057,1.3057,0,0,1.301,1.3014,1.303,1.3033,1.3039,1.3038,1.3042,1.3046,1.3047,1.3063,1.3055,1.3064,1.308,1.3084,1.3088,1.3117,1.311,1.312,1.3136,1.3146,1.3149,1.3152,1.3161,1.3165,1.3122,1.3122,1.3122,0,1.3025,1.3042,1.3038,1.3051,1.3056,1.3047,1.3062,1.3066,1.3074,1.3078,1.3071,1.309,1.3093,1.3112,1.3119,1.3123,1.3127,1.3119,1.3149,1.3152,1.3154,1.3163,1.3167,1.3123,1.3123,1.3123,1.3123,0,1.306,1.3071,1.3083,1.3091,1.3097,1.3111,1.3109,1.3116,1.3112,1.3112,1.3127,1.313,1.3139,1.3143,1.314,1.3162,1.3157,1.315,1.3137,1.316,1.3168,1.3171,1.3125,1.3124,1.3124,1.3124,0,0,1.31,1.3105,1.3109,1.3112,1.3117,1.3126,1.3139,1.3147,1.3153,1.3159,1.3169,1.3182,1.3175,1.318,1.3176,1.3185,1.3207,1.3176,1.3176,1.3181,1.323,1.3235,1.324,1.3202,1.3203,1.3204,1.3229,0,1.3128,1.3151,1.3147,1.3169,1.3179,1.317,1.3181,1.3185,1.3185,1.3193,1.3192,1.3202,1.3192,1.3194,1.3203,1.3202,1.3216,1.3201,1.3211,1.3212,1.321,1.3244,1.325,1.3274,1.3233,1.3233,1.3234,0,1.3165,1.3171,1.3194,1.3196,1.32,1.321,1.3217,1.3225,1.3229,1.3228,1.3233,1.3228,1.324,1.3227,1.3243,1.3232,1.3236,1.3237,1.3238,1.3238,1.3224,1.3245,1.3282,1.3286,1.3239,1.3238,1.3238,0,1.3191,1.3205,1.322,1.3223,1.3227,1.3234,1.3235,1.3239,1.3243,1.3249,1.3252,1.326,1.3263,1.3269,1.3265,1.3256,1.3282,1.3269,1.3281,1.3281,1.3287,1.3286,1.3324,1.329,1.329,1.329,1.329,0,1.3222,1.3237,1.3232,1.3241,1.3256,1.3252,1.3267,1.3267,1.327,1.3278,1.3271,1.3279,1.3274,1.3282,1.3279,1.3292,1.3294,1.3294,1.3293,1.3294,1.3294,1.3296,1.3295,1.3291,1.3291,1.329,1.329,0,1.3254,1.3252,1.3268,1.3269,1.327,1.3281,1.3282,1.329,1.3289,1.33,1.3302,1.33,1.3309,1.3306,1.3315,1.3313,1.333,1.3327,1.3329,1.3328,1.334,1.3338,1.338,1.3385,1.3348,1.3349,1.3349,0,1.3275,1.3285,1.3287,1.3293,1.3295,1.3304,1.3308,1.3303,1.3309,1.3313,1.3321,1.3329,1.3335,1.3349,1.3348,1.3355,1.3351,1.3366,1.3352,1.3353,1.3351,1.335,1.3351,1.3368,1.3369,1.3369,1.3369,0,1.3311,1.3309,1.3316,1.3323,1.3328,1.3333,1.3338,1.3342,1.3337,1.3344,1.3352,1.3357,1.3366,1.3373,1.3379,1.338,1.3374,1.3373,1.3376,1.3378,1.3378,1.3377,1.3335,1.3372,1.3372,1.3372,1.3372,1.3372,1.3337,1.3346,1.3348,1.3356,1.3359,1.3362,1.337,1.3369,1.3376,1.3383,1.338,1.3389,1.3392,1.3399,1.3401,1.3408,1.3403,1.3407,1.3408,1.3409,1.3411,1.3377,1.3409,1.3409,1.3409,1.3409,1.3409,0,1.3373,1.3373,1.3381,1.3386,1.3392,1.3385,1.3389,1.3395,1.3403,1.3406,1.3412,1.3421,1.3428,1.3428,1.3434,1.344,1.3437,1.3442,1.3441,1.3441,1.3416,1.3412,1.3444,1.3444,1.3444,1.3444,1.3444,1.3444,1.3392,1.3405,1.3403,1.3417,1.3418,1.3427,1.343,1.3433,1.3435,1.3446,1.3451,1.3451,1.3452,1.3458,1.3464,1.3464,1.3466,1.3472,1.347,1.3447,1.3443,1.344,1.3436,1.3473,1.3473,1.3495,1.3495,1.3496]}]]